Probability
0 0 0 0 0 0 0 0 0 0 0 0 0 0 0 0 0 0 0 0 0 0 0 0 0 0 0 0 0 0 0 0 0 0 0 0 0 0 0 0 0 0 0 0
0 0 0 0 0 0 0 0 0 0 0 0 0 0 0 0 0 0 0 0 0 0 0 0 0 0 0 0 0 0 0 0 0 0 0 0 0 0 0 0 0 0 0 0
0 0 0 0 0 0 0 0 0 0 0 0 0 0 0 0 0 0 0 0 0 0 0 0 0 0 0 0 0 0 0 0 0 0 0 0 0 0 0 0 0 0 0 0
0 0 0 0 0 0 0 0 0 0 0 0 0 0 0 0 0 0 0 0 0 0 0 0 0 0 0 0 0 0 0 0 0 0 0 0 0 0 0 0 0 0 0 0
0 0 0 0 0 0 0 0 0 0 0 0 0 0 0 0 0 0 0 0 0 0 0 0 0 0 0 0 0 0 0 0 0 0 0 0 0 0 0 0 0 0 0 0
0 0 0 0 0 0 0 0 0 0 0 0 0 0 0 0 0 0 0 0 0 0 0 0 0 0 0 0 0 0 0 0 0 0 0 0 0 0 0 0 0 0 0 0
0 0 0 0 0 0 0 0 0 0 0 0 0 0 0 0 0 0 0 0 0 0 0 0 0 0 0 0 0 0 0 0 0 0 0 0 0 0 0 0 0 0 0 0
0 0 0 0 0 0 0 0 0 0 0 0 0 0 0 0 0 0 0 0 0 0 0 0 0 0 0 0 0 0 0 0 0 0 0 0 0 0 0 0 0 0 0 0
0 0 0 0 0 0 0 0 0 0 0 0 0 0 0 0 0 0 0 0 0 0 0 0 0 0 0 0 0 0 0 0 0 0 0 0 0 0 0 0 0 0 0 0
0 0 0 0 0 0 0 0 0 0 0 0 0 0 0 0 0 0 0 0 0 0 0 0 0 0 0 0 0 0 0 0 0 0 0 0 0 0 0 0 0 0 0 0
0 0 0 0 0 0 0 0 0 0 0 0 0 0 0 0 0 0 0 0 0 0 0 0 0 0 0 0 0 0 0 0 0 0 0 0 0 0 0 0 0 0 0 0
0 0 0 0 0 0 0 0 0 0 0 0 0 0 0 0 0 0 0 0 0 0 0 0 0 0 0 0 0 0 3 0 0 0 0 0 0 0 0 0 0 0 0 0
0 0 0 0 0 0 0 0 0 0 0 0 0 0 0 0 0 0 0 0 0 0 0 0 0 0 0 0 0 0 0 0 0 0 0 0 0 0 0 0 0 0 0 0
0 0 0 0 0 0 0 0 0 0 0 0 0 0 0 0 0 0 0 0 0 0 0 0 0 0 0 0 0 0 0 0 0 0 0 0 0 0 0 0 0 0 0 0
0 0 0 0 0 0 0 0 0 0 0 0 0 0 0 0 0 0 0 0 0 0 0 0 0 0 0 0 0 0 0 0 0 0 0 0 0 0 0 0 0 0 0 0
0 0 0 0 0 0 0 0 0 0 0 0 0 0 0 0 0 0 0 0 0 0 0 0 0 0 0 0 0 0 0 0 0 0 0 0 0 0 0 0 0 0 0 0
0 0 0 0 0 0 0 0 0 0 0 0 0 0 0 0 0 0 0 0 0 0 0 0 0 0 0 0 0 0 0 0 0 0 0 0 0 0 0 0 0 0 0 0
0 0 0 0 0 0 0 0 0 0 0 0 0 0 0 0 0 0 0 0 0 0 0 0 0 0 0 0 0 0 0 0 0 0 0 0 0 0 0 0 0 0 0 0
0 0 0 0 0 0 0 0 0 0 0 0 0 0 0 0 0 0 0 0 0 0 0 0 0 0 0 0 0 0 0 0 0 0 0 0 0 0 0 0 0 0 0 0
0 0 0 0 0 0 0 0 0 0 0 0 0 0 0 0 0 0 0 0 0 0 0 0 0 0 0 0 0 0 0 0 0 0 0 0 0 0 0 0 0 0 0 0
0 0 0 0 0 0 0 0 0 0 0 0 0 0 0 0 0 0 0 0 0 0 0 0 0 0 0 0 0 0 0 0 0 0 0 0 0 0 0 0 0 0 0 0
0 0 0 0 0 0 0 0 0 0 0 0 0 0 0 0 0 0 0 0 0 0 0 0 0 0 0 0 0 0 0 0 0 0 0 0 0 0 0 0 0 0 0 0
0 0 0 0 0 0 0 0 0 0 0 0 0 0 0 0 0 0 0 0 0 0 0 0 0 0 0 0 0 0 0 0 0 0 0 0 0 0 0 0 0 0 0 0
0 0 0 0 0 0 0 0 0 0 0 0 0 0 0 0 0 0 0 0 0 0 0 0 0 0 0 0 0 0 0 0 0 0 0 0 0 0 0 0 0 0 0 0
0 0 0 0 0 0 0 0 0 0 0 0 0 0 0 0 0 0 0 0 0 0 0 0 0 0 0 0 0 0 0 0 0 0 0 0 0 0 0 0 0 0 0 0
0 0 0 0 0 0 0 0 0 0 0 0 0 0 0 0 0 0 0 0 0 0 0 0 0 0 0 0 0 0 0 0 0 0 0 0 0 0 0 0 0 0 0 0
Height
5713 5714 5712 5711 5710 5709 5708 5707 5706 5705 5705 5704 5704 5704 5704 5703 5702 5702 5702 5702 5703 5703 5703 5703 5703 5703 5703 5703 5703 5703 5702 5702 5701 5700 5700 5700 5700 5699 5699 5699 5700 5700 5701 5702
5708 5706 5705 5703 5702 5701 5700 5699 5698 5697 5696 5695 5695 5695 5695 5694 5693 5693 5693 5692 5693 5693 5693 5693 5693 5694 5694 5694 5693 5693 5693 5692 5692 5691 5690 5690 5689 5689 5688 5689 5689 5690 5691 5692
5701 5700 5698 5696 5694 5693 5692 5691 5690 5689 5688 5687 5686 5686 5686 5686 5685 5684 5683 5683 5683 5684 5684 5684 5684 5685 5685 5684 5684 5684 5683 5682 5681 5680 5680 5679 5679 5679 5679 5679 5679 5680 5680 5681
5695 5693 5691 5689 5688 5686 5685 5684 5682 5681 5680 5679 5679 5676 5678 5677 5676 5675 5674 5674 5674 5674 5675 5675 5676 5676 5676 5675 5675 5675 5674 5673 5671 5670 5669 5669 5669 5669 5669 5668 5668 5669 5670 5671
5688 5687 5685 5683 5681 5679 5678 5677 5675 5673 5672 5671 5670 5668 5670 5668 5667 5667 5666 5665 5665 5665 5666 5666 5667 5667 5667 5667 5666 5665 5664 5663 5662 5660 5659 5659 5659 5658 5658 5658 5658 5659 5660 5661
5682 5680 5678 5677 5675 5673 5671 5670 5668 5666 5664 5663 5663 5661 5661 5660 5659 5659 5658 5657 5656 5657 5657 5657 5658 5658 5658 5658 5657 5657 5655 5654 5652 5651 5650 5649 5649 5649 5649 5649 5649 5650 5650 5651
5676 5674 5671 5670 5668 5667 5665 5663 5660 5658 5656 5655 5655 5653 5653 5653 5652 5651 5650 5649 5649 5648 5649 5649 5649 5650 5650 5649 5649 5648 5647 5646 5644 5643 5641 5641 5640 5639 5639 5640 5640 5641 5641 5641
5669 5667 5666 5664 5662 5660 5658 5656 5654 5651 5649 5648 5647 5645 5646 5645 5644 5643 5642 5641 5641 5641 5641 5641 5641 5642 5641 5641 5640 5639 5638 5638 5636 5635 5634 5632 5632 5631 5631 5631 5631 5631 5632 5632
5662 5661 5660 5657 5655 5653 5651 5649 5647 5645 5642 5641 5639 5639 5638 5637 5636 5635 5634 5633 5633 5633 5634 5634 5634 5634 5633 5633 5632 5631 5630 5629 5628 5627 5626 5625 5623 5623 5623 5622 5622 5622 5623 5623
5656 5655 5653 5651 5649 5646 5644 5642 5640 5637 5635 5633 5633 5632 5631 5629 5628 5628 5627 5626 5626 5626 5626 5626 5626 5626 5626 5625 5624 5623 5622 5621 5620 5619 5618 5617 5616 5615 5615 5614 5614 5614 5614 5614
5650 5649 5647 5645 5642 5640 5638 5636 5634 5631 5630 5628 5626 5628 5625 5623 5622 5621 5620 5619 5619 5619 5619 5619 5619 5619 5618 5617 5616 5615 5614 5613 5612 5611 5610 5609 5608 5607 5606 5606 5606 5605 5605 5604
5643 5642 5641 5640 5637 5634 5632 5630 5628 5627 5624 5622 5620 5623 5618 5617 5615 5614 5613 5612 5612 5612 5612 5611 5611 5611 5610 5609 5609 5607 5606 5605 5604 5603 5602 5601 5600 5599 5598 5597 5597 5597 5596 5596
5637 5636 5635 5634 5633 5630 5626 5625 5623 5621 5618 5616 5615 5618 5613 5611 5609 5608 5607 5606 5605 5605 5604 5604 5604 5603 5603 5602 5601 5600 5598 5597 5596 5595 5594 5593 5592 5591 5590 5589 5588 5588 5587 5587
5631 5630 5630 5629 5626 5623 5621 5620 5617 5614 5612 5611 5610 5610 5609 5605 5603 5602 5601 5600 5599 5599 5598 5597 5597 5596 5595 5594 5593 5592 5591 5589 5588 5587 5586 5585 5584 5583 5582 5580 5580 5579 5578 5577
5625 5625 5624 5622 5620 5618 5616 5614 5611 5608 5607 5605 5605 5603 5602 5600 5598 5597 5596 5595 5594 5593 5592 5591 5590 5589 5588 5587 5586 5584 5583 5582 5580 5579 5578 5577 5576 5575 5573 5572 5571 5570 5569 5568
5619 5618 5618 5616 5614 5612 5610 5608 5605 5603 5601 5599 5598 5597 5595 5594 5593 5591 5590 5589 5588 5587 5586 5585 5584 5583 5581 5580 5579 5577 5576 5574 5572 5571 5569 5568 5567 5566 5564 5563 5562 5561 5560 5559
5613 5612 5611 5609 5608 5605 5604 5603 5600 5598 5596 5594 5592 5592 5589 5588 5587 5585 5584 5584 5583 5582 5580 5579 5578 5576 5575 5573 5572 5571 5569 5567 5565 5563 5562 5560 5559 5557 5556 5555 5554 5552 5551 5551
5607 5605 5603 5602 5601 5599 5601 5598 5595 5593 5591 5589 5586 5585 5583 5582 5580 5579 5578 5577 5576 5575 5574 5572 5571 5569 5568 5567 5565 5564 5562 5560 5558 5556 5554 5552 5551 5549 5548 5547 5545 5544 5542 5541
5600 5599 5597 5596 5594 5593 5594 5592 5589 5587 5586 5584 5581 5579 5577 5576 5575 5574 5573 5571 5570 5569 5567 5566 5564 5563 5561 5560 5558 5556 5554 5552 5550 5548 5547 5545 5543 5541 5540 5538 5536 5535 5533 5533
5594 5592 5591 5589 5587 5587 5589 5587 5583 5582 5580 5579 5576 5573 5571 5570 5570 5570 5567 5565 5564 5562 5560 5559 5557 5556 5554 5552 5551 5549 5547 5545 5543 5540 5539 5537 5535 5534 5532 5530 5527 5526 5525 5524
5587 5585 5584 5583 5580 5581 5583 5580 5577 5577 5576 5573 5570 5568 5566 5564 5563 5562 5560 5558 5557 5555 5553 5552 5550 5549 5547 5545 5543 5542 5540 5538 5535 5533 5531 5529 5527 5526 5524 5521 5519 5518 5517 5516
5580 5579 5578 5576 5575 5577 5576 5573 5572 5570 5568 5566 5564 5562 5560 5559 5557 5555 5554 5552 5550 5548 5547 5545 5543 5541 5539 5538 5536 5534 5532 5530 5528 5525 5523 5521 5519 5518 5516 5514 5512 5510 5509 5508
5572 5573 5571 5571 5572 5570 5568 5566 5565 5563 5561 5559 5557 5556 5554 5552 5551 5549 5547 5545 5543 5541 5540 5538 5536 5535 5533 5531 5529 5527 5525 5523 5521 5519 5516 5514 5512 5510 5508 5506 5505 5503 5502 5501
5565 5564 5563 5563 5563 5562 5561 5559 5557 5556 5554 5552 5551 5549 5547 5546 5544 5542 5540 5538 5536 5534 5532 5531 5529 5528 5526 5524 5522 5520 5518 5516 5514 5512 5510 5507 5505 5503 5501 5499 5497 5496 5495 5494
5557 5555 5555 5555 5555 5554 5554 5552 5550 5549 5547 5546 5544 5542 5540 5538 5537 5535 5533 5531 5529 5527 5525 5523 5522 5520 5519 5517 5516 5514 5512 5509 5507 5505 5503 5501 5498 5496 5494 5492 5490 5489 5488 5487
5549 5549 5548 5547 5548 5547 5546 5544 5543 5542 5540 5538 5536 5535 5533 5531 5529 5528 5526 5524 5522 5520 5518 5516 5515 5513 5512 5510 5508 5507 5505 5503 5501 5499 5496 5494 5492 5490 5487 5485 5483 5482 5481 5480
Wind_Speed
22 23 24 25 26 27 28 29 30 31 31 32 32 32 32 33 34 34 35 36 36 36 37 37 37 36 36 37 36 36 37 37 37 37 38 38 39 40 40 41 41 41 40 39
22 22 23 24 26 27 28 29 29 30 30 31 32 32 32 33 33 33 34 34 35 35 36 36 35 35 35 36 36 37 37 37 38 38 39 39 40 40 41 41 42 43 41 40
22 21 22 23 25 26 27 28 28 28 29 30 31 31 31 31 32 32 33 33 34 34 34 34 34 34 35 36 36 36 36 37 38 38 38 39 39 40 41 41 41 42 41 42
22 22 22 23 24 25 26 27 28 29 29 30 30 31 29 30 31 31 31 32 32 32 33 33 34 34 34 34 34 35 36 36 37 37 37 38 38 38 39 40 41 42 42 41
24 24 23 23 23 24 25 26 28 29 30 31 30 31 29 29 29 29 30 30 30 30 31 32 32 33 33 33 33 34 34 35 35 36 36 35 36 36 37 37 38 39 39 39
24 24 24 23 23 24 25 26 28 29 30 31 29 30 29 27 27 27 28 28 29 29 30 30 30 31 31 31 31 32 32 32 33 33 34 34 34 35 36 36 37 37 38 38
23 23 23 24 24 25 26 27 27 28 29 29 27 28 27 26 25 25 26 27 27 27 28 28 28 28 29 29 30 30 30 31 31 31 32 33 34 35 35 36 36 36 36 36
23 23 23 24 25 25 25 26 26 26 27 27 27 27 27 26 25 25 26 26 26 26 26 27 27 27 28 28 28 29 30 30 30 31 31 31 32 33 33 34 35 36 35 35
23 22 22 23 24 25 25 26 25 26 27 27 26 26 26 25 24 24 24 25 25 26 26 26 26 27 27 28 29 28 28 28 29 30 30 30 30 30 31 32 34 34 35 35
23 23 23 23 24 24 25 25 23 24 25 25 24 24 24 22 22 22 23 24 25 26 26 27 27 27 27 27 28 28 28 28 29 29 29 30 30 30 31 31 32 33 34 34
23 23 23 23 23 23 23 23 22 22 23 25 25 23 22 21 21 22 23 24 25 25 26 27 27 27 27 28 28 28 29 29 30 30 30 30 30 30 30 31 32 33 33 33
22 22 22 21 22 21 21 21 21 22 23 23 24 23 21 21 21 21 23 24 24 25 26 26 26 26 26 27 27 28 29 29 29 29 30 30 30 30 30 30 31 32 33 33
21 21 21 21 21 21 21 20 21 22 23 23 23 22 20 20 20 21 22 22 23 24 24 25 25 25 26 26 26 27 27 28 28 28 29 29 29 30 30 30 31 32 32 32
21 21 21 21 22 22 21 20 21 22 23 23 22 21 19 20 20 21 22 22 22 22 22 23 23 24 25 26 26 25 26 26 27 28 28 28 28 28 28 29 30 31 32 32
21 21 21 21 22 22 22 21 21 21 22 23 22 21 20 20 21 21 22 21 21 21 21 21 22 23 24 24 24 24 25 26 26 27 27 27 28 29 29 29 30 30 30 31
22 22 22 22 22 23 23 21 20 20 21 22 22 20 20 21 21 21 22 21 21 20 21 22 22 22 22 23 24 24 25 25 25 26 26 26 27 28 29 29 29 30 30 31
22 23 23 22 22 23 23 21 21 21 20 21 21 20 20 20 20 21 21 20 20 21 22 22 22 22 22 22 23 23 24 25 25 25 25 25 25 26 27 28 29 30 30 31
23 23 24 24 23 23 22 20 20 21 20 20 19 19 19 20 20 21 21 21 21 22 22 22 22 22 22 22 22 23 23 24 24 25 24 23 24 25 27 28 28 29 30 30
23 23 23 24 24 22 20 20 21 21 20 19 19 19 19 19 19 20 20 21 21 21 21 22 22 22 23 23 23 23 24 24 24 24 24 24 24 25 26 27 27 28 28 29
24 24 24 24 24 22 20 20 20 21 20 19 19 19 19 19 19 19 20 21 22 22 22 21 21 22 23 24 23 23 24 24 24 24 24 24 24 25 26 27 27 27 27 27
23 24 24 24 24 22 21 21 21 22 21 21 20 20 19 19 19 20 21 22 22 22 22 22 22 22 23 24 24 24 24 24 24 24 24 24 24 25 24 25 25 25 25 26
23 24 24 24 24 23 22 22 22 22 21 21 21 20 20 20 20 21 22 22 23 23 23 23 22 22 23 23 23 23 23 23 23 24 24 24 25 24 24 24 24 23 23 24
24 25 24 24 24 24 23 23 23 22 22 22 22 21 21 21 21 22 23 23 24 24 24 23 23 22 22 22 22 23 23 23 23 23 23 23 24 25 24 23 23 22 23 23
25 26 25 24 23 24 24 23 23 22 22 22 22 22 22 22 23 23 23 24 24 24 24 24 23 23 23 23 23 23 23 23 24 24 24 23 24 24 24 24 23 23 23 23
26 26 26 25 24 24 24 24 24 24 23 23 23 23 23 24 24 24 23 23 23 24 24 24 23 23 23 23 23 23 24 24 23 23 22 22 23 23 23 23 22 22 22 22
26 26 26 26 25 25 25 25 25 25 24 24 24 24 24 25 25 25 24 23 23 23 24 23 23 23 23 23 23 23 23 23 23 23 22 22 22 22 21 20 20 20 20 20
Wind_Direction
280 276 272 272 272 273 273 272 272 269 267 268 267 266 265 266 267 265 264 263 263 263 262 263 263 263 264 264 263 264 265 266 267 267 267 266 267 266 265 263 261 261 263 263
283 279 277 274 273 273 273 273 273 272 270 269 270 269 267 266 267 267 265 264 263 262 262 262 262 263 264 265 264 266 267 268 269 268 268 268 267 266 266 264 263 262 264 263
285 285 281 278 277 275 275 275 274 275 272 270 271 271 269 267 268 268 266 265 263 261 261 261 261 263 265 265 266 268 269 269 270 270 269 269 268 268 267 265 265 263 264 264
286 285 284 282 280 279 277 278 277 275 275 274 274 275 272 270 270 269 268 265 263 261 260 260 262 264 266 267 267 269 269 269 270 270 269 269 269 269 268 266 265 263 263 264
287 286 285 284 284 283 282 281 279 278 276 275 275 277 275 272 272 271 270 267 264 261 259 259 262 265 267 268 268 269 271 271 271 270 268 268 269 269 269 267 265 264 264 265
286 285 284 284 284 285 286 285 282 280 279 278 277 278 276 273 273 273 271 268 265 262 260 261 262 265 267 269 269 270 271 271 272 272 268 269 270 270 270 268 266 266 265 265
287 285 284 284 284 285 286 288 287 283 281 280 278 277 277 275 274 274 273 269 266 263 262 262 263 264 266 268 270 270 271 272 273 274 272 271 272 271 269 268 267 267 266 266
291 288 287 286 287 289 288 287 286 284 283 281 279 278 278 277 275 274 273 271 267 267 266 265 266 266 267 269 271 270 272 272 272 273 274 273 273 272 270 269 267 266 266 266
291 290 290 290 290 290 289 287 286 286 285 284 282 281 281 280 276 274 273 271 268 267 267 267 267 267 268 270 272 271 270 271 272 273 273 272 272 272 270 269 267 266 266 266
289 288 291 292 293 294 291 288 287 286 288 288 288 287 285 283 277 273 272 271 269 268 268 269 269 269 270 271 271 271 270 271 272 272 272 272 272 271 270 269 268 268 268 268
288 289 292 293 296 298 293 286 284 286 288 289 290 290 289 285 279 275 272 271 270 268 267 268 270 271 271 271 272 273 272 271 271 271 271 272 272 271 270 269 269 269 268 268
287 289 292 294 296 297 293 287 284 284 287 289 290 292 291 285 280 277 274 272 270 270 269 269 270 271 273 275 275 276 275 273 273 273 273 274 274 273 273 271 270 269 269 268
286 288 291 294 297 298 296 289 286 286 286 287 291 294 293 287 282 278 277 274 272 272 271 269 270 271 273 276 277 277 277 276 274 273 274 275 276 275 276 274 271 270 270 270
284 286 289 294 296 298 298 290 286 286 286 286 290 292 289 285 280 279 278 276 274 273 272 272 272 273 275 277 279 279 278 278 277 275 274 275 276 276 277 276 275 272 271 271
281 284 288 291 293 294 295 293 289 290 289 286 288 288 286 282 281 279 279 277 275 275 275 275 276 277 279 280 280 281 281 280 280 277 275 275 276 277 277 276 276 274 273 271
277 282 286 289 291 291 293 292 289 291 292 289 289 290 284 281 281 282 282 279 277 278 279 280 281 282 282 282 282 283 283 282 282 282 278 277 277 277 277 277 276 274 272 272
278 281 284 287 291 290 292 293 291 292 293 293 293 292 288 283 281 281 280 277 278 278 280 281 282 283 284 283 282 283 283 283 283 283 281 279 278 278 278 277 276 275 274 274
278 281 283 286 290 292 295 293 294 294 295 295 296 293 288 285 282 279 278 277 279 280 280 282 282 281 282 283 283 284 285 285 284 283 279 278 279 279 278 279 278 276 275 274
278 281 284 287 290 290 293 296 297 297 295 297 297 294 288 284 282 281 279 279 282 282 282 282 280 281 282 283 284 286 286 288 287 284 281 280 281 282 282 281 279 277 276 274
277 281 282 285 288 291 295 299 298 296 295 297 298 294 289 284 282 283 282 283 282 281 281 281 280 280 282 282 284 286 288 289 288 287 283 283 285 285 284 283 282 279 278 276
277 280 282 284 285 288 295 298 297 295 297 295 295 296 294 289 287 284 283 283 283 282 281 280 281 282 282 283 285 287 288 289 290 287 285 285 286 286 286 286 285 283 279 278
277 279 282 284 285 289 291 292 293 295 295 295 296 295 295 293 289 287 286 283 283 282 282 282 282 283 283 283 284 287 289 290 291 289 287 287 286 286 287 286 287 285 282 280
274 277 279 282 284 286 287 289 290 291 293 294 295 295 295 295 294 290 287 286 284 283 283 283 284 284 284 285 286 289 290 289 290 289 289 288 287 286 286 286 287 285 284 284
275 275 277 280 283 285 284 286 288 290 291 292 293 292 293 294 294 293 290 287 285 285 284 283 284 284 284 285 289 289 289 290 291 290 290 290 288 287 286 285 285 283 282 283
275 275 276 279 281 282 282 283 284 287 289 289 289 290 290 290 292 292 291 288 286 285 283 282 281 283 285 285 288 291 293 293 293 290 289 290 290 289 288 287 285 283 283 283
275 277 277 278 280 281 281 282 282 284 286 288 288 288 288 288 288 289 289 287 286 285 284 284 283 283 285 284 286 289 290 291 291 289 289 290 291 290 290 289 286 284 285 283